Weather History for LESO - October, 2012

Change the Weather History Date:

Friday, October 5, 2012

  Actual Average Record
Temperature  
Mean Temperature 70 °F -  
Max Temperature 84 °F 66 °F 86 °F (1997)
Min Temperature 55 °F 54 °F 48 °F (2005)
Cooling Degree Days 4    
Growing Degree Days 20 (Base 50)    
Moisture  
Dew Point 56 °F    
Average Humidity 64    
Maximum Humidity 94    
Minimum Humidity 30    
Precipitation  
Precipitation 0.00 in - - ()
Sea Level Pressure  
Sea Level Pressure 29.99 in    
Wind  
Wind Speed 2 mph ()    
Max Wind Speed 10 mph    
Max Gust Speed -    
Averages and records for this station are not official NWS values.
T = Trace of Precipitation, MM = Missing Value Source: Averaged Metar Reports

Daily Weather History Graph

Daily Weather History Graph

Search for Another Location

Airport or City:

Trip Planner

Search our weather history database for the weather conditions in past years. The results will help you decide how hot, cold, wet, or windy it might be!

Date:

Astronomy

Oct. 05, 2012 Rise Set
Actual Time 8:09 AM CEST 7:40 PM CEST
Civil Twilight 7:40 AM CEST 8:09 PM CEST
Nautical Twilight 7:07 AM CEST 8:42 PM CEST
Astronomical Twilight 6:34 AM CEST 9:15 PM CEST
Moon 10:44 PM CEST (10/5) 1:13 PM CEST (10/5)
Length of Visible Light 12h 28m
Length of Day
11h 31m
Waning Gibbous, 76% of the Moon is Illuminated
Oct 5
Waning Gibbous
Oct 8
Last Quarter
Oct 15
New
Oct 22
First Quarter
Oct 29
Full

Hourly Weather History & Observations

Time (CEST) Temp. Heat Index Dew Point Humidity Pressure Visibility Wind Dir Wind Speed Gust Speed Precip Events Conditions
5:30 AM 57.2 °F - 55.4 °F 94% 30.01 in - Variable 2.3 mph - N/A   Clear
6:00 AM 57.2 °F - 55.4 °F 94% 30.01 in - Variable 2.3 mph - N/A   Clear
6:30 AM 55.4 °F - 53.6 °F 94% 29.98 in - Variable 2.3 mph - N/A   Clear
7:00 AM 57.2 °F - 55.4 °F 94% 30.01 in - Variable 1.2 mph - N/A   Clear
7:30 AM 55.4 °F - 53.6 °F 94% 30.01 in - Variable 2.3 mph - N/A   Clear
8:00 AM 55.4 °F - 53.6 °F 94% 30.01 in - Variable 2.3 mph - N/A   Clear
8:30 AM 55.4 °F - 53.6 °F 94% 30.01 in - Variable 1.2 mph - N/A   Clear
9:00 AM 55.4 °F - 53.6 °F 94% 30.01 in - Variable 2.3 mph - N/A   Clear
9:30 AM 59.0 °F - 55.4 °F 88% 30.01 in - Variable 1.2 mph - N/A   Clear
10:00 AM 60.8 °F - 57.2 °F 88% 30.01 in - Calm Calm - N/A   Clear
10:30 AM 66.2 °F - 59.0 °F 78% 30.01 in - Calm Calm - N/A   Clear
11:00 AM 68.0 °F - 60.8 °F 78% 30.01 in - Calm Calm - N/A   Clear
11:30 AM 68.0 °F - 59.0 °F 73% 30.01 in - Variable 1.2 mph - N/A   Clear
12:00 PM 69.8 °F - 60.8 °F 73% 30.01 in - Variable 1.2 mph - N/A   Clear
12:30 PM 69.8 °F - 60.8 °F 73% 30.01 in - North 3.5 mph - N/A   Clear
1:00 PM 71.6 °F - 59.0 °F 64% 30.01 in - Variable 2.3 mph - N/A   Clear
1:30 PM 78.8 °F - 60.8 °F 54% 29.98 in - Calm Calm - N/A   Clear
2:00 PM 82.4 °F 81.7 °F 55.4 °F 39% 29.98 in - South 4.6 mph - N/A   Clear
2:30 PM 82.4 °F 81.7 °F 55.4 °F 39% 29.98 in - South 6.9 mph - N/A   Clear
3:00 PM 84.2 °F - 51.8 °F 33% 29.98 in - South 8.1 mph - N/A   Clear
3:30 PM 84.2 °F 82.8 °F 53.6 °F 35% 29.98 in - SSW 9.2 mph - N/A   Clear
4:00 PM 84.2 °F 82.8 °F 53.6 °F 35% 29.95 in - South 10.4 mph - N/A   Clear
4:30 PM 84.2 °F 82.8 °F 53.6 °F 35% 29.95 in - South 5.8 mph - N/A   Clear
5:00 PM 84.2 °F 82.8 °F 53.6 °F 35% 29.95 in - South 4.6 mph - N/A   Clear
5:30 PM 84.2 °F - 50.0 °F 30% 29.95 in - SSW 6.9 mph - N/A   Clear
6:00 PM 84.2 °F - 51.8 °F 33% 29.95 in - South 3.5 mph - N/A   Clear
6:30 PM 82.4 °F 81.4 °F 53.6 °F 37% 29.95 in - South 4.6 mph - N/A   Clear
7:00 PM 80.6 °F 80.5 °F 55.4 °F 42% 29.95 in - South 3.5 mph - N/A   Clear
7:30 PM 77.0 °F - 57.2 °F 50% 29.95 in - Variable 1.2 mph - N/A   Clear
8:00 PM 69.8 °F - 59.0 °F 68% 29.95 in - Variable 1.2 mph - N/A   Clear
8:30 PM 71.6 °F - 59.0 °F 64% 29.98 in - Variable 2.3 mph - N/A   Clear
9:00 PM 69.8 °F - 57.2 °F 64% 29.98 in - Variable 2.3 mph - N/A   Clear
9:30 PM 68.0 °F - 57.2 °F 68% 29.98 in - Variable 2.3 mph - N/A   Clear